Location: Home
(42.5358°N, 72.7383°W)
Time: 15:42:37
(UTC-05:00)

deb Explorer IX - Pass Details

Date: 09 December 2021
Orbit: 544 x 1082 km, 38.8° (Epoch: 22 January)

Event Time Altitude Azimuth Distance (km) Brightness Sun altitude
Rises 06:22:53 0° 208° (SSW) 3,571 ? -8.4°
Reaches altitude 10° 06:26:28 10° 190° (S) 2,521 ? -7.8°
Maximum altitude 06:30:17 18° 150° (SSE) 1,913 ? -7.2°
Drops below altitude 10° 06:33:48 10° 109° (ESE) 2,277 ? -6.6°
Sets 06:36:48 0° 90° (E) 3,095 ? -6.1°
